This is the latest recevied weather packets stored in our database for station/object KC4GS-13. If no packets are shown the sender has not sent any weather packets the latest 10 day(s).
| Time | Temp. | Humidity | Pressure | Rain* | Wind** | Luminosity | Snow |
|---|---|---|---|---|---|---|---|
| 1778114483 | 26.67° C | 56% | 1012.8 hPa | 0 mm | - | 0 W/m² | - |
| 1778114179 | 26.67° C | 56% | 1012.6 hPa | 0 mm | - | 0 W/m² | - |
| 1778113874 | 26.67° C | 56% | 1012.6 hPa | 0 mm | - | 0 W/m² | - |
| 1778113570 | 26.67° C | 56% | 1012.8 hPa | 0 mm | - | 0 W/m² | - |
| 1778113266 | 26.67° C | 55% | 1012.4 hPa | 0 mm | - | 0 W/m² | - |
| 1778112963 | 26.67° C | 55% | 1012.7 hPa | 0 mm | - | 0 W/m² | - |
| 1778112661 | 27.22° C | 54% | 1012.7 hPa | 0 mm | - | 0 W/m² | - |
| 1778112357 | 27.22° C | 54% | 1013.1 hPa | 0 mm | - | 3 W/m² | - |
| 1778112052 | 27.22° C | 54% | 1013.3 hPa | 0 mm | - | 5 W/m² | - |
| 1778111750 | 27.78° C | 54% | 1013.3 hPa | 0 mm | - | 10 W/m² | - |
| 1778111445 | 27.78° C | 54% | 1013.3 hPa | 0 mm | - | 11 W/m² | - |
| 1778111143 | 27.78° C | 54% | 1013.3 hPa | 0 mm | - | 15 W/m² | - |
| 1778110840 | 27.78° C | 53% | 1013.1 hPa | 0 mm | - | 19 W/m² | - |
| 1778110537 | 27.78° C | 54% | 1013.3 hPa | 0 mm | - | 21 W/m² | - |
| 1778110233 | 27.78° C | 54% | 1013.1 hPa | 0 mm | - | 26 W/m² | - |
| 1778109930 | 28.33° C | 54% | 1013.1 hPa | 0 mm | - | 32 W/m² | - |
| 1778109625 | 28.33° C | 53% | 1013.3 hPa | 0 mm | - | 36 W/m² | - |
| 1778109322 | 28.33° C | 53% | 1013 hPa | 0 mm | - | 34 W/m² | - |
| 1778109015 | 28.33° C | 52% | 1013.4 hPa | 0 mm | - | 34 W/m² | - |
| 1778108711 | 28.89° C | 52% | 1013.3 hPa | 0 mm | - | 31 W/m² | - |
| 1778108409 | 28.89° C | 51% | 1013.5 hPa | 0 mm | - | 31 W/m² | - |
| 1778108105 | 28.89° C | 51% | 1013.3 hPa | 0 mm | - | 35 W/m² | - |
| 1778107801 | 29.44° C | 50% | 1013.3 hPa | 0 mm | - | 61 W/m² | - |
| 1778107498 | 29.44° C | 50% | 1013.3 hPa | 0 mm | - | 88 W/m² | - |
| 1778107195 | 29.44° C | 50% | 1013.1 hPa | 0 mm | - | 95 W/m² | - |
* Rain latest hour (hover to see other rain measurements)
** Current wind speed in m/s (hover to see current wind gust speed)